Вернуться в каталог

NOAA 17 DEB

АктивенPO
NORAD 48720·DEBRIS·🇺🇸 United States

Запущен Jun 24, 2002 с Vandenberg Space Force Base

Loading…

Ближайшие Пролёты (ближайшие 24 часа)

TLE

СвежийSource: Space-Track

Эпоха: Sep 14, 2026, 06:10 UTC

1 48720U 02032BD  26257.25740681  .00004861  00000-0  11040-2 0  9990
2 48720  98.8318 271.2593 0029866  71.7897 288.6546 14.56224646287937

Отслеживайте NOAA 17 DEB в реальном времени с AllMySat

Download on the App Store